User: anonymous   Login
Location: Unspecified
(0.0000°N, 0.0000°E)
Time: 13:44:05
(UTC+01:00)
Language:

METEOSAT 10 (MSG 3) - Orbit

View from above orbital plane
View from above orbital plane
View from above satellite
View from above satellite

Ground track
Ground track

The orbit data is extracted from the following two-line orbital elements,

1 38552U 12035B   21332.78245361  .00000079  00000-0  00000-0 0  9997
2 38552   1.2895  26.2992 0001957 184.2308 148.4650  1.00277672 34195
Epoch (UTC): 28 November 2021 18:46:43
Eccentricity: 0.0001957
inclination: 1.2895°
perigee height: 35776 km
apogee height: 35793 km
right ascension of ascending node: 26.2992°
argument of perigee: 184.2308°
revolutions per day: 1.00277672
mean anomaly at epoch: 148.4650°
orbit number at epoch: 3419

The dashed part of the orbit path shows where the satellite is in the earth's shadow,  

DLR